TimeCST,TemperatureF,Dew PointF,Humidity,Sea Level PressureIn,VisibilityMPH,Wind Direction,Wind SpeedMPH,Gust SpeedMPH,PrecipitationIn,Events,Conditions,WindDirDegrees,DateUTC
12:15 AM,60.8,53.6,77,29.81,10.0,SSW,6.9,-,N/A,,Mostly Cloudy,200,2012-12-16 06:15:00
12:55 AM,60.8,53.6,77,29.80,10.0,South,8.1,-,N/A,,Partly Cloudy,190,2012-12-16 06:55:00
12:56 AM,60.8,53.6,77,29.80,10.0,SSW,9.2,-,N/A,,Partly Cloudy,200,2012-12-16 06:56:00
1:15 AM,60.8,53.6,77,29.80,10.0,South,10.4,-,N/A,,Partly Cloudy,190,2012-12-16 07:15:00
1:35 AM,60.8,53.6,77,29.80,10.0,SSW,9.2,-,N/A,,Clear,200,2012-12-16 07:35:00
2:15 AM,60.8,53.6,77,29.81,10.0,SSW,6.9,-,N/A,,Partly Cloudy,200,2012-12-16 08:15:00
2:55 AM,60.8,53.6,77,29.81,10.0,SSW,5.8,-,N/A,,Clear,210,2012-12-16 08:55:00
3:15 AM,60.8,53.6,77,29.81,10.0,SSW,8.1,-,N/A,,Clear,200,2012-12-16 09:15:00
3:35 AM,60.8,53.6,77,29.80,10.0,SSW,5.8,-,N/A,,Clear,200,2012-12-16 09:35:00
3:55 AM,60.8,51.8,72,29.80,10.0,SSW,5.8,-,N/A,,Clear,210,2012-12-16 09:55:00
4:35 AM,60.8,51.8,72,29.80,10.0,SSW,4.6,-,N/A,,Clear,200,2012-12-16 10:35:00
4:55 AM,59.0,51.8,77,29.79,10.0,SSW,3.5,-,N/A,,Clear,200,2012-12-16 10:55:00
5:15 AM,59.0,51.8,77,29.79,10.0,SSW,3.5,-,N/A,,Clear,210,2012-12-16 11:15:00
5:36 AM,59.0,51.8,77,29.81,10.0,SSW,5.8,-,N/A,,Clear,210,2012-12-16 11:36:00
5:55 AM,59.0,51.8,77,29.81,10.0,SSW,4.6,-,N/A,,Clear,200,2012-12-16 11:55:00
6:15 AM,59.0,50.0,72,29.79,10.0,South,5.8,-,N/A,,Clear,190,2012-12-16 12:15:00
6:35 AM,57.2,50.0,77,29.81,10.0,SSW,5.8,-,N/A,,Clear,200,2012-12-16 12:35:00
6:55 AM,57.2,48.2,72,29.82,10.0,South,4.6,-,N/A,,Clear,190,2012-12-16 12:55:00
7:35 AM,57.2,48.2,72,29.83,10.0,SSW,4.6,-,N/A,,Clear,210,2012-12-16 13:35:00
7:56 AM,57.2,48.2,72,29.82,10.0,South,5.8,-,N/A,,Clear,180,2012-12-16 13:56:00
8:15 AM,59.0,48.2,67,29.81,10.0,South,4.6,-,N/A,,Clear,190,2012-12-16 14:15:00
8:35 AM,59.0,48.2,67,29.81,10.0,South,4.6,-,N/A,,Clear,180,2012-12-16 14:35:00
8:55 AM,59.0,50.0,72,29.80,10.0,SSE,5.8,-,N/A,,Clear,160,2012-12-16 14:55:00
9:16 AM,59.0,51.8,77,29.80,10.0,South,5.8,-,N/A,,Clear,180,2012-12-16 15:16:00
9:35 AM,60.8,51.8,72,29.80,10.0,South,4.6,-,N/A,,Clear,170,2012-12-16 15:35:00
9:55 AM,60.8,53.6,77,29.80,10.0,South,5.8,-,N/A,,Clear,180,2012-12-16 15:55:00
10:35 AM,62.6,53.6,72,29.78,10.0,South,5.8,-,N/A,,Clear,180,2012-12-16 16:35:00
10:55 AM,62.6,53.6,72,29.78,10.0,South,5.8,-,N/A,,Clear,180,2012-12-16 16:55:00
11:15 AM,62.6,53.6,72,29.77,10.0,South,6.9,-,N/A,,Clear,190,2012-12-16 17:15:00
11:36 AM,62.6,53.6,72,29.77,10.0,South,8.1,-,N/A,,Clear,190,2012-12-16 17:36:00
11:55 AM,62.6,53.6,72,29.77,10.0,South,8.1,-,N/A,,Clear,180,2012-12-16 17:55:00
12:15 PM,62.6,53.6,72,29.77,10.0,South,8.1,-,N/A,,Clear,190,2012-12-16 18:15:00
12:35 PM,62.6,53.6,72,29.77,10.0,South,5.8,-,N/A,,Partly Cloudy,190,2012-12-16 18:35:00
1:15 PM,60.8,51.8,72,29.74,10.0,South,6.9,-,N/A,,Mostly Cloudy,180,2012-12-16 19:15:00
1:35 PM,60.8,51.8,72,29.71,10.0,SSE,5.8,-,N/A,,Scattered Clouds,160,2012-12-16 19:35:00
2:15 PM,60.8,51.8,72,29.71,10.0,SSW,8.1,-,N/A,,Overcast,200,2012-12-16 20:15:00
2:55 PM,60.8,51.8,72,29.71,10.0,South,5.8,-,N/A,,Overcast,190,2012-12-16 20:55:00
3:15 PM,60.8,51.8,72,29.69,10.0,South,9.2,-,N/A,,Mostly Cloudy,170,2012-12-16 21:15:00
3:35 PM,60.8,51.8,72,29.69,10.0,South,17.3,25.3,N/A,,Mostly Cloudy,180,2012-12-16 21:35:00
3:55 PM,60.8,51.8,72,29.70,10.0,South,9.2,18.4,N/A,,Overcast,190,2012-12-16 21:55:00
4:16 PM,60.8,51.8,72,29.72,10.0,SW,10.4,-,N/A,,Overcast,220,2012-12-16 22:16:00
4:35 PM,60.8,51.8,72,29.73,10.0,SW,9.2,-,N/A,,Overcast,220,2012-12-16 22:35:00
4:55 PM,60.8,51.8,72,29.73,10.0,SSW,6.9,-,N/A,,Mostly Cloudy,200,2012-12-16 22:55:00
5:16 PM,60.8,51.8,72,29.73,10.0,SSW,8.1,-,N/A,,Overcast,200,2012-12-16 23:16:00
5:35 PM,60.8,51.8,72,29.74,10.0,SSW,9.2,-,N/A,,Overcast,200,2012-12-16 23:35:00
5:55 PM,60.8,51.8,72,29.73,10.0,South,9.2,-,N/A,,Overcast,190,2012-12-16 23:55:00
6:35 PM,60.8,51.8,72,29.74,10.0,South,5.8,-,N/A,,Partly Cloudy,190,2012-12-17 00:35:00
6:55 PM,59.0,51.8,77,29.75,10.0,South,8.1,-,N/A,,Partly Cloudy,190,2012-12-17 00:55:00
7:15 PM,59.0,51.8,77,29.75,10.0,SSW,6.9,-,N/A,,Mostly Cloudy,200,2012-12-17 01:15:00
7:36 PM,60.8,51.8,72,29.75,10.0,South,6.9,-,N/A,,Mostly Cloudy,180,2012-12-17 01:36:00
7:55 PM,59.0,51.8,77,29.75,10.0,South,6.9,-,N/A,,Scattered Clouds,190,2012-12-17 01:55:00
8:15 PM,59.0,51.8,77,29.75,10.0,South,8.1,-,N/A,,Partly Cloudy,190,2012-12-17 02:15:00
8:55 PM,59.0,51.8,77,29.75,10.0,South,8.1,-,N/A,,Mostly Cloudy,180,2012-12-17 02:55:00
9:15 PM,59.0,51.8,77,29.75,10.0,South,4.6,-,N/A,,Overcast,190,2012-12-17 03:15:00
9:55 PM,57.2,51.8,82,29.75,10.0,South,5.8,-,N/A,,Scattered Clouds,190,2012-12-17 03:55:00
10:15 PM,57.2,51.8,82,29.75,10.0,South,5.8,-,N/A,,Mostly Cloudy,190,2012-12-17 04:15:00
10:35 PM,57.2,51.8,82,29.74,10.0,South,8.1,-,N/A,,Scattered Clouds,190,2012-12-17 04:35:00
10:56 PM,57.2,50.0,77,29.74,10.0,South,8.1,-,N/A,,Scattered Clouds,190,2012-12-17 04:56:00
11:15 PM,57.2,50.0,77,29.74,10.0,South,6.9,-,N/A,,Partly Cloudy,190,2012-12-17 05:15:00
11:35 PM,57.2,50.0,77,29.74,10.0,South,6.9,-,N/A,,Clear,190,2012-12-17 05:35:00
11:55 PM,57.2,50.0,77,29.74,10.0,SSW,5.8,-,N/A,,Scattered Clouds,200,2012-12-17 05:55:00